Lexington Weather

Lexington, Massachusetts, USA

59°F
11/30/2020 6:33pm 
  • Lexington Conditions: Rain, Mist, Overcast
  • Temperature: 59.2°F / 15.1°CColder 0.2°F than last hour.
  • Dew Point: 57.4°FDecreased 0.2°Fsince last hour.
  • Relative Humidity: 94
  • Wind: Wind from SE SE 8 mph, 10-min avg: 7 mph, gust: 24 mph
  • Barometer: 29.55 inFalling 0.03  inHg/hr Falling Slowly
  • Visibility: 3 miles
  • Rain Today: 0.58 in
  •   
Southeast Middlesex County - Wind Advisory - Special Weather Statement
 - SEE ALL NEARBY ALERTS -

Regional Weather Roundup
for Boston / Norton, MA

        
000
ASUS41 KBOX 252304
RWRBOX

REGIONAL WEATHER ROUNDUP
NATIONAL WEATHER SERVICE BOSTON/NORTON MA
600 PM EST WED NOV 25 2020

NOTE:  "FAIR" INDICATES FEW OR NO CLOUDS BELOW 12,000 FEET WITH NO 
SIGNIFICANT WEATHER AND/OR OBSTRUCTIONS TO VISIBILITY.

MAZALL-260000-
EASTERN MASSACHUSETTS
  
CITY           SKY/WX    TMP DP  RH WIND       PRES   REMARKS
BOSTON         CLOUDY    46  34  62 NW3       30.26S                  
BEVERLY        MOCLDY    41  34  76 NW6       30.25S                  
LAWRENCE       MOCLDY    38  30  73 CALM      30.27F                  
BEDFORD        MOCLDY    38  28  67 CALM      30.25S                  
BLUE HILL        N/A     48  39  71 SW13G18   30.23S                  
NORWOOD        CLOUDY    49  39  68 CALM      30.25S                  
MARSHFIELD     LGT RAIN  54  52  94 CALM      30.25S                  
PLYMOUTH       LGT RAIN  52  50  93 SW5       30.25R                  
TAUNTON        LGT RAIN  55  48  77 SW6       30.26R                  
NEW BEDFORD    CLOUDY    54  51  90 W6        30.25R                  
$$

MAZALL-260000-
CAPE COD AND THE ISLANDS
  
CITY           SKY/WX    TMP DP  RH WIND       PRES   REMARKS
FALMOUTH       CLOUDY    55  52  88 S12       30.25S                  
HYANNIS        CLOUDY    55  51  86 S12G20    30.24S                  
CHATHAM        CLOUDY    54  48  80 S10G17    30.27F                  
PROVINCETOWN   LGT RAIN  52  50  93 S9        30.26S                  
NANTUCKET      MOCLDY    55  51  86 S15       30.27F                  
MARTHAS VNYRD  CLOUDY    57  53  86 S14G23    30.25F                  
$$
 
MAZALL-260000-
CENTRAL AND WESTERN MASSACHUSETTS
  
CITY           SKY/WX    TMP DP  RH WIND       PRES   REMARKS
WORCESTER      CLOUDY    46  37  71 SW12      30.23F                  
FITCHBURG      MOCLDY    37  26  64 CALM      30.25F                  
ORANGE         CLOUDY    40  35  83 CALM      30.23F                  
SPRINGFIELD    DRIZZLE   39  29  68 CALM      30.22F                  
WESTFIELD      CLOUDY    39  29  67 S3        30.23F                  
NORTH ADAMS    MOCLDY    47  33  58 NE5       30.20S                  
PITTSFIELD     CLOUDY    45  34  65 SW6       30.18F                  
$$
 
RIZALL-260000-
RHODE ISLAND
  
CITY           SKY/WX    TMP DP  RH WIND       PRES   REMARKS
PROVIDENCE     CLOUDY    53  47  79 NW6       30.26R                  
NEWPORT        CLOUDY    53  49  86 W5        30.25S                  
BLOCK ISLAND   MOCLDY    53  50  89 W9        30.27R                  
SMITHFIELD     LGT RAIN  49  49 100 VRB5      30.26S                  
WESTERLY       MOCLDY    54  47  77 W3        30.26R                  
$$
 
CTZALL-260000-
CONNECTICUT
  
CITY           SKY/WX    TMP DP  RH WIND       PRES   REMARKS
BRADLEY INTL   CLOUDY    41  29  62 CALM      30.24F                  
HARTFORD       CLOUDY    42  32  67 CALM      30.25F                  
BRIDGEPORT     MOCLDY    51  44  77 CALM      30.25S                  
DANBURY        MOCLDY    46  37  71 CALM      30.25S                  
GROTON         MOCLDY    53  47  79 W7        30.26R                  
NEW HAVEN      MOCLDY    51  44  77 CALM      30.25S                  
CHESTER        FAIR     N/A N/A N/A CALM      30.25S                  
MERIDEN        MOCLDY    47  41  80 CALM      30.25S                  
WILLIMANTIC    CLOUDY    47  44  90 CALM      30.25F                  
OXFORD         MOCLDY    48  40  73 CALM      30.24F                  
$$

MEZ002-015-021-024-NHZ003-005-008-011-012-014-VTZ005-008-260000-
NORTHERN NEW ENGLAND
  
CITY           SKY/WX    TMP DP  RH WIND       PRES   REMARKS
PORTLAND ME    CLOUDY    30  26  85 NW5       30.28F WCI  25          
BANGOR ME      LGT RAIN  34  32  92 NW3       30.26F                  
CONCORD NH     MOCLDY    33  24  69 NW5       30.26S WCI  29          
MANCHESTER NH  CLOUDY    37  24  59 N3        30.24F                  
NASHUA NH      MOCLDY    35  26  69 CALM      30.26F                  
PORTSMOUTH NH  MOCLDY    35  26  71 NW7       30.24F WCI  29          
JAFFREY NH     MOCLDY    34  26  72 CALM      30.21F                  
KEENE NH       MOCLDY    34  27  75 CALM      30.23F                  
BURLINGTON VT  CLOUDY    43  31  62 S9        30.15R                  
MT. WASHINGTON FOG       23  23 100 W49         N/A  VSB 1/8 WCI   2  
$$

NYZ052-076-260000-
EASTERN NEW YORK
  
CITY           SKY/WX    TMP DP  RH WIND       PRES   REMARKS
ALBANY         CLOUDY    46  34  62 SE10      30.18S                  
NEW YORK CITY  MOCLDY    53  39  59 S6        30.24F                  
$$
 
ANZALL-260000-
MARINE OBSERVATIONS
  
STATION/POSITION TIME  TEMP    WIND        PRES    VSBY  WAVE
                       AIR SEA DIR/SP/G                  HT/PER
                 (UTC) (F)     (DEG/KT/KT) (MB)    (MI)  (FT/S)
BOSTON BUOY      2240   51 50  190/  4/  6 1024.7F
BUZZARDS BAY     2200          190/ 22/ 23 1024.5F
NANTUCKET SOUND  2240      50  170/ 16/ 17   N/A
MASS BAY-STELLWA NOT AVBL
ISLE OF SHOALS   2200   42     340/  7/  8 1024.4R
S OF BLOCK IS    2226      57                N/A           6/ 6
$$

......................KEY.........................
  SKY/WX - SKY CONDITION/PRESENT WEATHER
  TMP    - TEMPERATURE IN FAHRENHEIT
  DWPT   - DEWPOINT IN FAHRENHEIT
  RH     - RELATIVE HUMIDITY IN PERCENT
  WIND   - DIRECTION AND SPEED IN MPH
  PRES   - MEAN SEA LEVEL PRESSURE IN INCHES OF HG
  WCI    - WIND CHILL INDEX
  VSB    - VISIBILITY IN MILES
  HX     - HEAT INDEX
  TC     - TEMPERATURE IN CELSIUS
  VRB    - VARIABLE WIND DIRECTION
  N/A    - NOT AVAILABLE
  
      

Other recent Regional Weather Roundups

Mon Nov 30, 6:04pm

Mon Nov 30, 5:05pm

Mon Nov 30, 4:04pm

Mon Nov 30, 3:05pm

Mon Nov 30, 2:05pm

Mon Nov 30, 1:04pm

Mon Nov 30, 12:05pm

Mon Nov 30, 11:04am

Mon Nov 30, 10:04am

Mon Nov 30, 9:04am

Mon Nov 30, 8:04am

Mon Nov 30, 7:05am

Mon Nov 30, 6:04am

Mon Nov 30, 5:05am

Mon Nov 30, 4:04am

Mon Nov 30, 3:04am

Mon Nov 30, 2:04am

Mon Nov 30, 1:04am

Mon Nov 30, 12:04am

Sun Nov 29, 11:04pm

Sun Nov 29, 10:04pm

Sun Nov 29, 9:04pm

Sun Nov 29, 8:04pm

Sun Nov 29, 7:04pm

Sun Nov 29, 6:04pm

Sun Nov 29, 5:04pm

Sun Nov 29, 4:05pm

Sun Nov 29, 3:04pm

Sun Nov 29, 2:04pm

Sun Nov 29, 1:04pm

Sun Nov 29, 12:04pm

Sun Nov 29, 11:04am

Sun Nov 29, 10:04am

Sun Nov 29, 9:04am

Sun Nov 29, 8:05am

Sun Nov 29, 7:04am

Sun Nov 29, 6:04am

Sun Nov 29, 5:04am

Sun Nov 29, 4:04am

Sun Nov 29, 3:04am

Sun Nov 29, 2:05am

Sun Nov 29, 1:04am

Sun Nov 29, 12:04am

Sat Nov 28, 11:04pm

Sat Nov 28, 10:04pm

Sat Nov 28, 9:04pm

Sat Nov 28, 8:04pm

Sat Nov 28, 7:04pm

Sat Nov 28, 6:04pm

Sat Nov 28, 5:04pm

Sat Nov 28, 4:04pm

Sat Nov 28, 3:04pm

Sat Nov 28, 2:04pm

Sat Nov 28, 1:04pm

Sat Nov 28, 12:04pm

Sat Nov 28, 11:04am

Sat Nov 28, 10:04am

Sat Nov 28, 9:04am

Sat Nov 28, 8:04am

Sat Nov 28, 7:04am

Sat Nov 28, 6:04am

Sat Nov 28, 5:04am

Sat Nov 28, 4:04am

Sat Nov 28, 3:05am

Sat Nov 28, 2:04am

Sat Nov 28, 1:04am

Sat Nov 28, 12:04am

Fri Nov 27, 11:05pm

Fri Nov 27, 10:04pm

Fri Nov 27, 9:04pm

Fri Nov 27, 8:04pm

Fri Nov 27, 7:04pm

Fri Nov 27, 6:04pm

Fri Nov 27, 5:04pm

Fri Nov 27, 4:05pm

Fri Nov 27, 3:05pm

Fri Nov 27, 2:05pm

Fri Nov 27, 1:04pm

Fri Nov 27, 12:04pm

Fri Nov 27, 11:04am

Fri Nov 27, 10:04am

Fri Nov 27, 9:05am

Fri Nov 27, 8:04am

Fri Nov 27, 7:04am

Fri Nov 27, 6:04am

Fri Nov 27, 5:04am

Fri Nov 27, 4:04am

Fri Nov 27, 3:04am

Fri Nov 27, 2:04am

Fri Nov 27, 1:04am

Fri Nov 27, 12:04am

Thu Nov 26, 11:04pm

Thu Nov 26, 10:04pm

Thu Nov 26, 9:04pm

Thu Nov 26, 8:04pm

Thu Nov 26, 7:04pm

Thu Nov 26, 6:04pm

Thu Nov 26, 5:04pm

Thu Nov 26, 4:04pm

Thu Nov 26, 2:04pm

Thu Nov 26, 1:04pm

Thu Nov 26, 12:04pm

Thu Nov 26, 11:04am

Thu Nov 26, 10:04am

Thu Nov 26, 9:04am

Thu Nov 26, 8:04am

Thu Nov 26, 7:04am

Thu Nov 26, 6:04am

Thu Nov 26, 5:04am

Thu Nov 26, 4:04am

Thu Nov 26, 3:04am

Thu Nov 26, 2:04am

Thu Nov 26, 1:04am

Thu Nov 26, 12:04am

Wed Nov 25, 11:04pm

Wed Nov 25, 10:04pm

Wed Nov 25, 9:04pm

Wed Nov 25, 8:04pm

Wed Nov 25, 7:04pm

Wed Nov 25, 5:04pm

Wed Nov 25, 4:04pm

Wed Nov 25, 3:05pm

Wed Nov 25, 2:04pm

Wed Nov 25, 1:04pm

Wed Nov 25, 12:05pm

Wed Nov 25, 11:04am

Wed Nov 25, 10:04am

Wed Nov 25, 9:04am

Wed Nov 25, 8:04am

Wed Nov 25, 7:04am

Wed Nov 25, 6:04am

Wed Nov 25, 5:04am

Wed Nov 25, 4:04am

Wed Nov 25, 3:04am

Wed Nov 25, 2:04am

Wed Nov 25, 1:04am

Wed Nov 25, 12:04am

Tue Nov 24, 11:04pm

Tue Nov 24, 10:04pm

Tue Nov 24, 9:04pm

Tue Nov 24, 8:04pm

Tue Nov 24, 7:04pm

Tue Nov 24, 6:04pm

Tue Nov 24, 5:04pm

Tue Nov 24, 4:05pm

Tue Nov 24, 3:05pm

Tue Nov 24, 2:05pm

Tue Nov 24, 1:05pm

Tue Nov 24, 12:04pm

Tue Nov 24, 11:04am

Tue Nov 24, 10:04am

Tue Nov 24, 9:04am

Tue Nov 24, 8:04am

Tue Nov 24, 7:04am

Tue Nov 24, 6:04am

Tue Nov 24, 5:04am

Tue Nov 24, 4:05am

Tue Nov 24, 3:04am

Tue Nov 24, 2:04am

Tue Nov 24, 1:04am

Tue Nov 24, 12:05am

Mon Nov 23, 11:04pm

Mon Nov 23, 10:04pm

Mon Nov 23, 9:04pm

Mon Nov 23, 8:04pm

Mon Nov 23, 7:04pm

Meta data:

ID: 4e8ad211-6233-45e0-a24d-bd1ed273c45f
Link: https://api.weather.gov/products/4e8ad211-6233-45e0-a24d-bd1ed273c45f